PKEEE WIII-WIID

Flight info

Callsign PKEEE
Flight time N/A
Altitude 2000
Route VFR
Aircraft SR22/L-V/N

Departure

Time 2026-04-30 06:24
Airport Soekarno-Hatta International Airport (WIII)

Arrival

Time N/A
Airport WIID
Time Latitude Longitude Altitude Speed Heading
2026-04-30 06:14 -6.13428 106.65546 36 ft 0 kts 161°
2026-04-30 06:18 -6.13429 106.65546 36 ft 3 kts 158°
2026-04-30 06:19 -6.13389 106.65554 36 ft 7 kts 50°
2026-04-30 06:19 -6.13401 106.65612 36 ft 8 kts 128°
2026-04-30 06:19 -6.13456 106.65638 36 ft 10 kts 156°
2026-04-30 06:19 -6.13518 106.65655 36 ft 11 kts 174°
2026-04-30 06:20 -6.13551 106.65630 35 ft 7 kts 249°
2026-04-30 06:20 -6.13583 106.65547 35 ft 20 kts 249°
2026-04-30 06:20 -6.13646 106.65386 34 ft 24 kts 247°
2026-04-30 06:21 -6.13698 106.65257 33 ft 14 kts 243°
2026-04-30 06:21 -6.13716 106.65206 33 ft 10 kts 256°
2026-04-30 06:21 -6.13733 106.65154 34 ft 11 kts 253°
2026-04-30 06:21 -6.13769 106.65076 36 ft 10 kts 244°
2026-04-30 06:22 -6.13814 106.64998 37 ft 11 kts 203°
2026-04-30 06:22 -6.13865 106.65022 36 ft 2 kts 127°
2026-04-30 06:22 -6.13881 106.65102 34 ft 18 kts 95°
2026-04-30 06:22 -6.13899 106.65207 33 ft 10 kts 94°
2026-04-30 06:23 -6.13828 106.65426 33 ft 64 kts 69°
2026-04-30 06:23 -6.13601 106.65983 93 ft 99 kts 65°
2026-04-30 06:23 -6.13238 106.66647 214 ft 114 kts 56°
2026-04-30 06:23 -6.12854 106.67339 406 ft 119 kts 61°
2026-04-30 06:24 -6.12590 106.68149 586 ft 126 kts 91°
2026-04-30 06:24 -6.12971 106.68939 765 ft 134 kts 135°
2026-04-30 06:24 -6.13657 106.69589 961 ft 136 kts 130°
2026-04-30 06:24 -6.14286 106.70262 1138 ft 138 kts 130°
2026-04-30 06:25 -6.14848 106.71052 1328 ft 138 kts 117°
2026-04-30 06:25 -6.15322 106.71889 1494 ft 141 kts 116°
2026-04-30 06:25 -6.15731 106.72816 1524 ft 149 kts 97°
2026-04-30 06:25 -6.15830 106.73868 1536 ft 157 kts 91°
2026-04-30 06:26 -6.15896 106.74985 1530 ft 164 kts 90°
2026-04-30 06:26 -6.15955 106.76111 1531 ft 168 kts 90°
2026-04-30 06:26 -6.16024 106.77308 1420 ft 174 kts 92°
2026-04-30 06:26 -6.16093 106.78477 1286 ft 162 kts 91°
2026-04-30 06:27 -6.16080 106.79572 1040 ft 160 kts 84°
2026-04-30 06:27 -6.15957 106.80640 764 ft 146 kts 81°
2026-04-30 06:27 -6.15800 106.81632 535 ft 149 kts 78°
2026-04-30 06:27 -6.15627 106.82673 314 ft 152 kts 81°
2026-04-30 06:28 -6.15473 106.83706 134 ft 148 kts 81°
2026-04-30 06:28 -6.15330 106.84660 22 ft 127 kts 81°
2026-04-30 06:28 -6.15257 106.85141 22 ft 60 kts 82°
2026-04-30 06:28 -6.15238 106.85286 22 ft 42 kts 82°
2026-04-30 06:29 -6.15224 106.85429 22 ft 0 kts 306°
2026-04-30 06:29 -6.15228 106.85371 22 ft 14 kts 256°
2026-04-30 06:29 -6.15238 106.85317 22 ft 9 kts 266°
2026-04-30 06:29 -6.15271 106.85126 22 ft 51 kts 262°
2026-04-30 06:30 -6.15314 106.84817 22 ft 28 kts 244°
2026-04-30 06:30 -6.15380 106.84790 22 ft 1 kts 173°
2026-04-30 06:30 -6.15415 106.84783 22 ft 6 kts 203°
2026-04-30 06:30 -6.15444 106.84766 22 ft 9 kts 219°
2026-04-30 06:31 -6.15463 106.84753 22 ft 0 kts 216°